Manteo, NC

6:28 PM EST on November 23, 2017 (GMT -0500)
Dare County Regional

Weather History for KMQI - July, 2013

Change the Weather History Date:

Monday, July 15, 2013

  Actual Average Record
Temperature  
Mean Temperature 76 °F -  
Max Temperature 83 °F 82 °F 93 °F (1983)
Min Temperature 70 °F 72 °F 63 °F (1980)
Cooling Degree Days 12    
Growing Degree Days 26 (Base 50)    
Moisture  
Dew Point 72 °F    
Average Humidity 80    
Maximum Humidity 99    
Minimum Humidity 63    
Precipitation  
Precipitation 0.00 in - - ()
Sea Level Pressure  
Sea Level Pressure 30.28 in    
Wind  
Wind Speed 4 mph (ESE)    
Max Wind Speed 9 mph    
Max Gust Speed -    
Visibility 10 miles    
Events      
Averages and records for this station are not official NWS values.
T = Trace of Precipitation, MM = Missing Value Source: NWS Daily Summary

Daily Weather History Graph

Daily Weather History Graph

Search for Another Location

Airport or City:

Trip Planner

Search our weather history database for the weather conditions in past years. The results will help you decide how hot, cold, wet, or windy it might be!

Date:

Astronomy

Jul. 15, 2013 Rise Set
Actual Time 5:57 AM EDT 8:19 PM EDT
Civil Twilight 5:28 AM EDT 8:48 PM EDT
Nautical Twilight 4:52 AM EDT 9:24 PM EDT
Astronomical Twilight 4:12 AM EDT 10:04 PM EDT
Moon 12:59 PM EDT (7/15) No Moon Set
Length of Visible Light 15h 20m
Length of Day
14h 21m
Waxing Crescent, 45% of the Moon is Illuminated
Jul 15
Waxing Crescent
Jul 15
First Quarter
Jul 22
Full
Jul 29
Last Quarter
Aug 6
New

Hourly Weather History & Observations

Time (EDT) Temp. Heat Index Dew Point Humidity Pressure Visibility Wind Dir Wind Speed Gust Speed Precip Events Conditions
12:15 AM 77.4 °F - 73.6 °F 88% 30.29 in 10.0 mi East 6.9 mph - N/A   Clear
12:35 AM 77.2 °F - 73.6 °F 89% 30.29 in 10.0 mi East 5.8 mph - N/A   Clear
12:55 AM 77.2 °F - 73.4 °F 88% 30.29 in 10.0 mi East 4.6 mph - N/A   Clear
1:15 AM 77.2 °F - 73.2 °F 88% 30.29 in 10.0 mi ESE 4.6 mph - N/A   Clear
1:35 AM 76.8 °F - 73.4 °F 89% 30.29 in 10.0 mi ESE 4.6 mph - N/A   Clear
1:55 AM 76.6 °F - 73.4 °F 90% 30.29 in 10.0 mi ESE 3.5 mph - N/A   Clear
2:15 AM 76.3 °F - 73.4 °F 91% 30.29 in 10.0 mi Calm Calm - N/A   Clear
2:35 AM 76.3 °F - 73.6 °F 91% 30.29 in 5.0 mi Calm Calm - N/A   Clear
2:55 AM 75.6 °F - 73.6 °F 94% 30.28 in 10.0 mi Calm Calm - N/A   Clear
3:15 AM 73.4 °F - 72.1 °F 96% 30.28 in 10.0 mi Calm Calm - N/A   Clear
3:35 AM 73.4 °F - 72.7 °F 98% 30.28 in 10.0 mi Calm Calm - N/A   Clear
3:55 AM 73.2 °F - 72.5 °F 98% 30.28 in 10.0 mi Calm Calm - N/A   Clear
4:15 AM 73.6 °F - 72.7 °F 97% 30.28 in 10.0 mi Calm Calm - N/A   Clear
4:35 AM 73.6 °F - 72.1 °F 95% 30.28 in 10.0 mi Calm Calm - N/A   Clear
4:55 AM 72.0 °F - 71.6 °F 99% 30.29 in 7.0 mi Calm Calm - N/A   Clear
5:15 AM 72.1 °F - 71.8 °F 99% 30.29 in 4.0 mi Calm Calm - N/A   Clear
5:35 AM 72.0 °F - 71.8 °F 99% 30.29 in 2.0 mi Calm Calm - N/A   Clear
5:55 AM 70.9 °F - 70.5 °F 99% 30.29 in 3.0 mi Calm Calm - N/A   Clear
6:15 AM 71.2 °F - 70.9 °F 99% 30.29 in 7.0 mi Calm Calm - N/A   Clear
6:35 AM 73.4 °F - 72.3 °F 96% 30.30 in 7.0 mi Calm Calm - N/A   Clear
6:55 AM 74.1 °F - 73.4 °F 98% 30.30 in 10.0 mi Calm Calm - N/A   Clear
7:15 AM 77.0 °F - 74.8 °F 93% 30.30 in 10.0 mi Calm Calm - N/A   Clear
7:35 AM 78.8 °F - 74.1 °F 85% 30.30 in 10.0 mi ENE 3.5 mph - N/A   Clear
7:55 AM 79.5 °F - 73.8 °F 82% 30.30 in 10.0 mi ENE 4.6 mph - N/A   Clear
8:15 AM 79.7 °F - 73.4 °F 81% 30.30 in 10.0 mi NE 4.6 mph - N/A   Clear
8:35 AM 79.9 °F - 73.6 °F 81% 30.31 in 10.0 mi ENE 4.6 mph - N/A   Clear
8:55 AM 81.0 °F 86.0 °F 73.6 °F 78% 30.31 in 10.0 mi East 3.5 mph - N/A   Clear
9:15 AM 80.6 °F 85.2 °F 73.0 °F 78% 30.31 in 10.0 mi ENE 3.5 mph - N/A   Clear
9:35 AM 81.5 °F 86.7 °F 73.4 °F 76% 30.31 in 10.0 mi ENE 4.6 mph - N/A   Clear
9:55 AM 81.7 °F 86.9 °F 73.0 °F 75% 30.31 in 10.0 mi ENE 6.9 mph - N/A   Clear
10:15 AM 81.5 °F 86.5 °F 73.0 °F 75% 30.31 in 10.0 mi ENE 5.8 mph - N/A   Clear
10:35 AM 81.7 °F 86.9 °F 73.0 °F 75% 30.31 in 10.0 mi ENE 5.8 mph - N/A   Clear
10:55 AM 81.7 °F 87.1 °F 73.6 °F 76% 30.31 in 10.0 mi East 6.9 mph - N/A   Clear
11:15 AM 82.0 °F 87.7 °F 73.6 °F 75% 30.31 in 10.0 mi ENE 8.1 mph - N/A   Clear
11:35 AM 82.0 °F 87.7 °F 73.6 °F 75% 30.31 in 10.0 mi ENE 6.9 mph - N/A   Clear
11:55 AM 82.0 °F 87.7 °F 73.2 °F 75% 30.30 in 10.0 mi East 5.8 mph - N/A   Clear
12:15 PM 82.8 °F 88.7 °F 73.4 °F 73% 30.31 in 10.0 mi East 4.6 mph - N/A   Clear
12:35 PM 82.2 °F 87.8 °F 73.0 °F 74% 30.31 in 10.0 mi ENE 4.6 mph - N/A   Clear
12:55 PM 82.8 °F 88.7 °F 73.4 °F 73% 30.30 in 10.0 mi ENE 6.9 mph - N/A   Clear
1:15 PM 82.9 °F 89.1 °F 73.6 °F 73% 30.30 in 10.0 mi NE 8.1 mph - N/A   Clear
1:35 PM 82.6 °F 87.8 °F 72.3 °F 71% 30.30 in 10.0 mi East 6.9 mph - N/A   Clear
1:55 PM 82.9 °F 89.1 °F 73.6 °F 73% 30.29 in 10.0 mi East 8.1 mph - N/A   Clear
2:15 PM 82.9 °F 88.0 °F 71.8 °F 69% 30.29 in 10.0 mi ENE 6.9 mph - N/A   Clear
2:35 PM 83.3 °F 89.6 °F 73.4 °F 72% 30.29 in 10.0 mi East 8.1 mph - N/A   Clear
2:55 PM 83.5 °F 89.4 °F 72.9 °F 70% 30.29 in 10.0 mi ENE 6.9 mph - N/A   Clear
3:15 PM 83.3 °F 87.9 °F 70.9 °F 66% 30.28 in 10.0 mi East 6.9 mph - N/A   Clear
3:35 PM 83.1 °F 88.4 °F 72.1 °F 69% 30.28 in 10.0 mi East 9.2 mph - N/A   Clear
3:55 PM 83.1 °F 88.4 °F 72.1 °F 69% 30.28 in 10.0 mi East 9.2 mph - N/A   Clear
4:15 PM 83.5 °F 89.1 °F 72.3 °F 69% 30.27 in 10.0 mi ESE 6.9 mph - N/A   Clear
4:35 PM 82.9 °F 87.7 °F 71.2 °F 68% 30.27 in 10.0 mi ESE 8.1 mph - N/A   Clear
4:55 PM 83.5 °F 88.0 °F 70.7 °F 65% 30.26 in 10.0 mi East 6.9 mph - N/A   Clear
5:15 PM 82.6 °F 86.8 °F 70.5 °F 67% 30.26 in 10.0 mi ESE 5.8 mph - N/A   Clear
5:35 PM 82.6 °F 86.1 °F 69.3 °F 64% 30.25 in 10.0 mi SE 4.6 mph - N/A   Clear
5:55 PM 82.8 °F 86.2 °F 68.9 °F 63% 30.25 in 10.0 mi ESE 3.5 mph - N/A   Clear
6:15 PM 82.9 °F 87.0 °F 70.2 °F 65% 30.24 in 10.0 mi East 4.6 mph - N/A   Clear
6:35 PM 82.6 °F 86.6 °F 70.0 °F 66% 30.24 in 10.0 mi East 3.5 mph - N/A   Clear
6:55 PM 82.8 °F 86.7 °F 70.0 °F 65% 30.24 in 10.0 mi SSW 5.8 mph - N/A   Clear
7:15 PM 82.2 °F 86.4 °F 70.7 °F 68% 30.24 in 10.0 mi SSW 6.9 mph - N/A   Clear
7:35 PM 81.5 °F 85.1 °F 70.2 °F 68% 30.24 in 10.0 mi SSW 4.6 mph - N/A   Clear
7:55 PM 81.1 °F 84.9 °F 70.5 °F 70% 30.24 in 10.0 mi SSW 5.8 mph - N/A   Clear
8:15 PM 80.6 °F 84.2 °F 70.7 °F 72% 30.24 in 10.0 mi SSW 4.6 mph - N/A   Clear
8:35 PM 80.4 °F 84.1 °F 71.1 °F 73% 30.24 in 10.0 mi SSW 4.6 mph - N/A   Clear
8:55 PM 79.0 °F - 71.4 °F 78% 30.24 in 10.0 mi SSW 5.8 mph - N/A   Clear
9:15 PM 80.2 °F 83.9 °F 71.2 °F 74% 30.24 in 10.0 mi SSW 6.9 mph - N/A   Clear
9:35 PM 81.0 °F 84.7 °F 70.9 °F 71% 30.24 in 10.0 mi SW 6.9 mph - N/A   Clear
9:55 PM 80.6 °F 84.7 °F 72.0 °F 75% 30.24 in 10.0 mi SW 9.2 mph - N/A   Clear
11:15 PM 79.2 °F - 72.0 °F 78% 30.24 in 10.0 mi WSW 8.1 mph - N/A   Clear
11:35 PM 78.8 °F - 72.0 °F 79% 30.24 in 10.0 mi WSW 9.2 mph - N/A   Clear
11:55 PM 79.0 °F - 72.3 °F 80% 30.24 in 10.0 mi WSW 6.9 mph - N/A   Clear